SWA2636 KCOS-KDEN

Flight info

Callsign SWA2636
Flight time 0h 19m
Altitude 16000
Route ADANE V389 LUFSE/N0350F150 JEFEL/N0346F140
Aircraft B738/M-SDE2E3FGHIRWXY/LB1

Departure

Time 2026-05-05 02:59
Airport City of Colorado Springs Municipal Airport (KCOS)

Arrival

Time 2026-05-05 03:18
Airport Denver International Airport (KDEN)
Time Latitude Longitude Altitude Speed Heading
2026-05-05 02:19 38.80019 -104.70081 6193 ft 0 kts 179°
2026-05-05 02:44 38.80023 -104.70081 6193 ft 3 kts 179°
2026-05-05 02:44 38.80049 -104.70083 6193 ft 4 kts 164°
2026-05-05 02:45 38.80070 -104.70098 6193 ft 4 kts 119°
2026-05-05 02:45 38.80076 -104.70120 6193 ft 0 kts 90°
2026-05-05 02:48 38.80076 -104.70118 6193 ft 1 kts 90°
2026-05-05 02:48 38.80076 -104.70083 6192 ft 6 kts 90°
2026-05-05 02:49 38.80076 -104.70022 6193 ft 8 kts 90°
2026-05-05 02:49 38.80076 -104.69942 6192 ft 10 kts 89°
2026-05-05 02:49 38.80076 -104.69845 6193 ft 11 kts 90°
2026-05-05 02:49 38.80085 -104.69748 6192 ft 11 kts 60°
2026-05-05 02:50 38.80156 -104.69725 6193 ft 11 kts
2026-05-05 02:50 38.80229 -104.69724 6193 ft 10 kts 359°
2026-05-05 02:50 38.80279 -104.69675 6193 ft 10 kts 87°
2026-05-05 02:50 38.80281 -104.69585 6193 ft 10 kts 89°
2026-05-05 02:51 38.80280 -104.69492 6193 ft 11 kts 91°
2026-05-05 02:51 38.80279 -104.69377 6193 ft 15 kts 90°
2026-05-05 02:51 38.80279 -104.69228 6193 ft 18 kts 90°
2026-05-05 02:51 38.80279 -104.69058 6193 ft 20 kts 90°
2026-05-05 02:52 38.80280 -104.68871 6193 ft 20 kts 90°
2026-05-05 02:52 38.80252 -104.68790 6193 ft 10 kts 159°
2026-05-05 02:52 38.80173 -104.68787 6193 ft 14 kts 180°
2026-05-05 02:52 38.80054 -104.68788 6193 ft 20 kts 180°
2026-05-05 02:53 38.79897 -104.68788 6192 ft 23 kts 180°
2026-05-05 02:53 38.79738 -104.68788 6193 ft 23 kts 180°
2026-05-05 02:53 38.79583 -104.68789 6192 ft 22 kts 180°
2026-05-05 02:53 38.79433 -104.68789 6192 ft 21 kts 180°
2026-05-05 02:54 38.79287 -104.68789 6191 ft 21 kts 180°
2026-05-05 02:54 38.79145 -104.68789 6191 ft 20 kts 180°
2026-05-05 02:54 38.79008 -104.68789 6193 ft 19 kts 180°
2026-05-05 02:54 38.78871 -104.68790 6193 ft 21 kts 180°
2026-05-05 02:55 38.78713 -104.68790 6193 ft 23 kts 180°
2026-05-05 02:55 38.78558 -104.68789 6193 ft 22 kts 180°
2026-05-05 02:55 38.78403 -104.68790 6192 ft 23 kts 180°
2026-05-05 02:55 38.78238 -104.68791 6193 ft 24 kts 180°
2026-05-05 02:56 38.78085 -104.68791 6192 ft 19 kts 180°
2026-05-05 02:56 38.77957 -104.68791 6192 ft 14 kts 177°
2026-05-05 02:56 38.77914 -104.68727 6192 ft 2 kts 89°
2026-05-05 02:56 38.77914 -104.68726 6192 ft 0 kts 89°
2026-05-05 02:57 38.77914 -104.68716 6192 ft 3 kts 89°
2026-05-05 02:57 38.77915 -104.68668 6191 ft 10 kts 89°
2026-05-05 02:57 38.77944 -104.68582 6190 ft 13 kts 13°
2026-05-05 02:58 38.78125 -104.68581 6191 ft 53 kts
2026-05-05 02:58 38.78719 -104.68581 6194 ft 116 kts 360°
2026-05-05 02:58 38.79335 -104.68581 6192 ft 151 kts
2026-05-05 02:58 38.80504 -104.68575 6503 ft 175 kts
2026-05-05 02:59 38.81741 -104.68335 7130 ft 186 kts 18°
2026-05-05 02:59 38.83002 -104.67782 7618 ft 199 kts 15°
2026-05-05 02:59 38.84329 -104.67080 7968 ft 215 kts 30°
2026-05-05 02:59 38.85637 -104.65997 8259 ft 233 kts 32°
2026-05-05 03:00 38.87055 -104.64841 8614 ft 249 kts 31°
2026-05-05 03:00 38.88576 -104.63625 9019 ft 266 kts 31°
2026-05-05 03:00 38.90206 -104.62340 9495 ft 282 kts 30°
2026-05-05 03:00 38.91916 -104.61007 10034 ft 293 kts 30°
2026-05-05 03:01 38.93686 -104.59638 10608 ft 300 kts 30°
2026-05-05 03:01 38.95485 -104.58253 11193 ft 302 kts 29°
2026-05-05 03:01 38.97301 -104.56860 11779 ft 305 kts 29°
2026-05-05 03:01 38.99107 -104.55479 12349 ft 307 kts 28°
2026-05-05 03:02 39.00949 -104.54071 12936 ft 312 kts 28°
2026-05-05 03:02 39.02887 -104.52593 13020 ft 338 kts 28°
2026-05-05 03:02 39.04975 -104.51000 13045 ft 359 kts 28°
2026-05-05 03:02 39.07149 -104.49352 13035 ft 363 kts 29°
2026-05-05 03:03 39.09326 -104.47679 13031 ft 365 kts 29°
2026-05-05 03:03 39.11507 -104.45999 13027 ft 364 kts 29°
2026-05-05 03:03 39.13680 -104.44328 13023 ft 364 kts 29°
2026-05-05 03:03 39.15855 -104.42658 13023 ft 363 kts 29°
2026-05-05 03:04 39.18029 -104.40992 13026 ft 365 kts 29°
2026-05-05 03:04 39.20214 -104.39314 13023 ft 365 kts 29°
2026-05-05 03:04 39.22368 -104.37587 13025 ft 364 kts 33°
2026-05-05 03:04 39.24394 -104.35709 13033 ft 362 kts 36°
2026-05-05 03:05 39.26436 -104.33732 13021 ft 361 kts 36°
2026-05-05 03:05 39.28426 -104.31822 13019 ft 360 kts 35°
2026-05-05 03:05 39.30447 -104.29907 13019 ft 360 kts 35°
2026-05-05 03:05 39.32480 -104.28024 13008 ft 359 kts 31°
2026-05-05 03:06 39.34759 -104.26841 12763 ft 352 kts
2026-05-05 03:06 39.37152 -104.26908 12527 ft 340 kts 346°
2026-05-05 03:06 39.39343 -104.27919 12275 ft 331 kts 330°
2026-05-05 03:06 39.41178 -104.29634 12027 ft 322 kts 319°
2026-05-05 03:07 39.42855 -104.31524 11777 ft 317 kts 317°
2026-05-05 03:07 39.44256 -104.33680 11491 ft 309 kts 297°
2026-05-05 03:07 39.44833 -104.36283 11233 ft 298 kts 273°
2026-05-05 03:07 39.44692 -104.38928 11000 ft 293 kts 262°
2026-05-05 03:08 39.44367 -104.41513 10747 ft 290 kts 261°
2026-05-05 03:08 39.44017 -104.44071 10493 ft 288 kts 260°
2026-05-05 03:08 39.43661 -104.46618 10240 ft 287 kts 260°
2026-05-05 03:08 39.43303 -104.49158 9992 ft 287 kts 260°
2026-05-05 03:09 39.42949 -104.51651 9747 ft 284 kts 260°
2026-05-05 03:09 39.42746 -104.54165 9456 ft 278 kts 277°
2026-05-05 03:09 39.43332 -104.56463 9198 ft 265 kts 303°
2026-05-05 03:09 39.44306 -104.58428 8958 ft 256 kts 306°
2026-05-05 03:10 39.45314 -104.60316 8713 ft 254 kts 307°
2026-05-05 03:10 39.46326 -104.62181 8454 ft 253 kts 306°
2026-05-05 03:10 39.47369 -104.63979 8455 ft 247 kts 307°
2026-05-05 03:10 39.48410 -104.65741 8448 ft 247 kts 307°
2026-05-05 03:11 39.49542 -104.67391 8440 ft 243 kts 326°
2026-05-05 03:11 39.51066 -104.68188 8437 ft 236 kts 353°
2026-05-05 03:11 39.52692 -104.68459 8455 ft 237 kts 352°
2026-05-05 03:11 39.54332 -104.68803 8466 ft 240 kts 353°
2026-05-05 03:12 39.55995 -104.68969 8463 ft 239 kts 359°
2026-05-05 03:12 39.57655 -104.69010 8461 ft 238 kts
2026-05-05 03:12 39.59307 -104.69016 8459 ft 237 kts
2026-05-05 03:12 39.60938 -104.69007 8461 ft 238 kts
2026-05-05 03:13 39.62588 -104.68993 8456 ft 237 kts
2026-05-05 03:13 39.64233 -104.68976 8458 ft 236 kts
2026-05-05 03:13 39.65876 -104.68957 8453 ft 236 kts
2026-05-05 03:13 39.67513 -104.68939 8455 ft 234 kts
2026-05-05 03:14 39.69092 -104.68921 8457 ft 219 kts
2026-05-05 03:14 39.70599 -104.68903 8200 ft 215 kts
2026-05-05 03:14 39.72072 -104.68887 7990 ft 208 kts
2026-05-05 03:14 39.73487 -104.68871 7873 ft 204 kts
2026-05-05 03:15 39.74920 -104.68853 7613 ft 206 kts
2026-05-05 03:15 39.76341 -104.68837 7330 ft 203 kts
2026-05-05 03:15 39.77734 -104.68820 7056 ft 196 kts
2026-05-05 03:15 39.79049 -104.68805 6818 ft 183 kts
2026-05-05 03:16 39.80279 -104.68790 6566 ft 171 kts
2026-05-05 03:16 39.81408 -104.68777 6357 ft 155 kts
2026-05-05 03:16 39.82469 -104.68765 6168 ft 151 kts
2026-05-05 03:16 39.83526 -104.68753 5966 ft 152 kts
2026-05-05 03:17 39.84589 -104.68740 5764 ft 153 kts
2026-05-05 03:17 39.85652 -104.68731 5550 ft 153 kts
2026-05-05 03:17 39.86713 -104.68716 5365 ft 150 kts
2026-05-05 03:17 39.87664 -104.68706 5361 ft 120 kts
2026-05-05 03:18 39.88327 -104.68695 5360 ft 53 kts
2026-05-05 03:18 39.88561 -104.68597 5358 ft 26 kts 32°
2026-05-05 03:18 39.88603 -104.68534 5359 ft 8 kts 89°
2026-05-05 03:18 39.88566 -104.68486 5359 ft 8 kts 163°
2026-05-05 03:19 39.88398 -104.68481 5360 ft 15 kts 180°
2026-05-05 03:19 39.88293 -104.68482 5360 ft 15 kts 180°
2026-05-05 03:19 39.88192 -104.68483 5360 ft 14 kts 180°
2026-05-05 03:20 39.88096 -104.68484 5360 ft 14 kts 180°
2026-05-05 03:20 39.87996 -104.68485 5360 ft 14 kts 180°
2026-05-05 03:20 39.87899 -104.68487 5360 ft 14 kts 181°
2026-05-05 03:20 39.87806 -104.68489 5360 ft 13 kts 181°
2026-05-05 03:21 39.87713 -104.68490 5360 ft 15 kts 180°
2026-05-05 03:21 39.87594 -104.68491 5360 ft 17 kts 180°
2026-05-05 03:21 39.87475 -104.68492 5361 ft 17 kts 181°
2026-05-05 03:21 39.87361 -104.68494 5361 ft 16 kts 181°
2026-05-05 03:22 39.87251 -104.68496 5361 ft 16 kts 181°
2026-05-05 03:22 39.87145 -104.68498 5361 ft 15 kts 180°
2026-05-05 03:22 39.87041 -104.68498 5361 ft 15 kts 180°
2026-05-05 03:22 39.86928 -104.68498 5361 ft 17 kts 180°
2026-05-05 03:23 39.86804 -104.68498 5361 ft 18 kts 180°
2026-05-05 03:23 39.86682 -104.68500 5362 ft 17 kts 181°
2026-05-05 03:23 39.86558 -104.68503 5361 ft 19 kts 181°
2026-05-05 03:23 39.86455 -104.68500 5361 ft 11 kts 164°
2026-05-05 03:24 39.86426 -104.68417 5363 ft 11 kts 92°
2026-05-05 03:24 39.86425 -104.68308 5369 ft 14 kts 90°
2026-05-05 03:24 39.86424 -104.68154 5372 ft 20 kts 93°
2026-05-05 03:24 39.86419 -104.68004 5374 ft 15 kts 91°
2026-05-05 03:25 39.86417 -104.67873 5376 ft 14 kts 90°
2026-05-05 03:25 39.86416 -104.67773 5376 ft 9 kts 90°
2026-05-05 03:25 39.86376 -104.67735 5374 ft 8 kts 178°
2026-05-05 03:25 39.86359 -104.67735 5375 ft 0 kts 180°